Time,TemperatureF,DewpointF,PressureIn,WindDirection,WindDirectionDegrees,WindSpeedMPH,WindSpeedGustMPH,Humidity,HourlyPrecipIn,Conditions,Clouds,dailyrainin,SoftwareType,DateUTC
2013-12-05 00:23:00,60.0,56.0,-100.00,SSW,205,12.0,17.0,88,0.00,,,-99.99,,2013-12-05 05:23:00,
2013-12-05 00:52:00,59.0,56.0,-100.00,SSW,205,12.0,20.0,89,0.00,,,-99.99,,2013-12-05 05:52:00,
2013-12-05 01:22:00,59.0,56.0,-100.00,SSW,205,14.0,18.0,89,0.00,,,-99.99,,2013-12-05 06:22:00,
2013-12-05 01:32:00,59.0,56.0,-100.00,SSW,205,14.0,18.0,89,0.00,,,-99.99,,2013-12-05 06:32:00,
2013-12-05 01:52:00,59.0,56.0,-100.00,SW,215,12.0,21.0,90,0.00,,,-99.99,,2013-12-05 06:52:00,
2013-12-05 02:22:00,58.0,56.0,-100.00,SW,225,14.0,19.0,92,0.00,,,-99.99,,2013-12-05 07:22:00,
2013-12-05 02:52:00,58.0,56.0,-100.00,SW,225,12.0,17.0,92,0.00,,,-99.99,,2013-12-05 07:52:00,
2013-12-05 03:22:00,58.0,56.0,-100.00,SW,220,12.0,18.0,93,0.00,,,-99.99,,2013-12-05 08:22:00,
2013-12-05 03:53:00,57.0,55.0,-100.00,SW,225,12.0,19.0,92,0.00,,,-99.99,,2013-12-05 08:53:00,
2013-12-05 04:22:00,57.0,55.0,-100.00,SW,235,12.0,18.0,93,0.00,,,-99.99,,2013-12-05 09:22:00,
2013-12-05 04:53:00,57.0,53.0,-100.00,WSW,250,16.0,25.0,86,0.00,,,-99.99,,2013-12-05 09:53:00,
2013-12-05 05:23:00,55.0,50.0,-100.00,WSW,255,22.0,30.0,84,0.00,,,-99.99,,2013-12-05 10:23:00,
2013-12-05 05:53:00,50.0,48.0,-100.00,West,270,12.0,18.0,92,0.00,,,-99.99,,2013-12-05 10:53:00,
2013-12-05 06:22:00,49.0,47.0,-100.00,WSW,255,15.0,21.0,92,0.00,,,-99.99,,2013-12-05 11:22:00,
2013-12-05 06:53:00,47.0,43.0,-100.00,West,260,17.0,26.0,85,0.00,,,-99.99,,2013-12-05 11:53:00,
2013-12-05 07:22:00,44.0,39.0,-100.00,WSW,250,16.0,20.0,83,0.00,,,-99.99,,2013-12-05 12:22:00,
2013-12-05 07:52:00,42.0,38.0,-100.00,West,270,15.0,21.0,86,0.00,,,-99.99,,2013-12-05 12:52:00,
2013-12-05 08:22:00,41.0,37.0,-100.00,West,260,12.0,19.0,86,0.00,,,-99.99,,2013-12-05 13:22:00,
2013-12-05 08:52:00,41.0,36.0,-100.00,West,265,16.0,22.0,84,0.00,,,-99.99,,2013-12-05 13:52:00,
2013-12-05 09:22:00,41.0,36.0,-100.00,West,265,12.0,16.0,83,0.00,,,-99.99,,2013-12-05 14:22:00,
2013-12-05 09:52:00,40.0,35.0,-100.00,West,270,14.0,24.0,81,0.00,,,-99.99,,2013-12-05 14:52:00,
2013-12-05 10:22:00,39.0,33.0,-100.00,WSW,255,17.0,27.0,78,0.00,,,-99.99,,2013-12-05 15:22:00,
2013-12-05 10:54:00,39.0,33.0,-100.00,West,270,17.0,22.0,77,0.00,,,-99.99,,2013-12-05 15:54:00,
2013-12-05 11:13:00,39.0,32.0,-100.00,West,275,16.0,22.0,76,0.00,,,-99.99,,2013-12-05 16:13:00,
2013-12-05 11:23:00,39.0,32.0,-100.00,West,275,16.0,22.0,76,0.00,,,-99.99,,2013-12-05 16:23:00,
2013-12-05 11:53:00,38.0,30.0,-100.00,West,275,20.0,25.0,74,0.00,,,-99.99,,2013-12-05 16:53:00,
2013-12-05 12:23:00,37.0,29.0,-100.00,West,260,16.0,23.0,73,0.00,,,-99.99,,2013-12-05 17:23:00,
2013-12-05 12:52:00,38.0,29.0,-100.00,West,280,15.0,21.0,71,0.00,,,-99.99,,2013-12-05 17:52:00,
2013-12-05 13:22:00,37.0,29.0,-100.00,WNW,290,16.0,22.0,71,0.00,,,-99.99,,2013-12-05 18:22:00,
2013-12-05 13:52:00,37.0,28.0,-100.00,WNW,290,13.0,20.0,70,0.00,,,-99.99,,2013-12-05 18:52:00,
2013-12-05 14:21:00,36.0,28.0,-100.00,West,270,18.0,21.0,71,0.00,,,-99.99,,2013-12-05 19:21:00,
2013-12-05 14:52:00,36.0,28.0,-100.00,West,265,13.0,19.0,70,0.00,,,-99.99,,2013-12-05 19:52:00,
2013-12-05 15:02:00,36.0,28.0,-100.00,West,265,13.0,19.0,70,0.00,,,-99.99,,2013-12-05 20:02:00,
2013-12-05 15:22:00,36.0,28.0,-100.00,West,280,13.0,18.0,70,0.00,,,-99.99,,2013-12-05 20:22:00,
2013-12-05 15:52:00,36.0,27.0,-100.00,West,265,15.0,17.0,70,0.00,,,-99.99,,2013-12-05 20:52:00,
2013-12-05 16:22:00,35.0,27.0,-100.00,West,280,12.0,17.0,70,0.00,,,-99.99,,2013-12-05 21:22:00,
2013-12-05 16:44:00,35.0,27.0,-100.00,West,280,16.0,19.0,70,0.00,,,-99.99,,2013-12-05 21:44:00,
2013-12-05 16:53:00,35.0,26.0,-100.00,West,270,13.0,17.0,69,0.00,,,-99.99,,2013-12-05 21:53:00,
2013-12-05 17:24:00,35.0,26.0,-100.00,West,270,11.0,14.0,71,0.00,,,-99.99,,2013-12-05 22:24:00,
2013-12-05 17:52:00,34.0,26.0,-100.00,West,280,11.0,15.0,70,0.00,,,-99.99,,2013-12-05 22:52:00,
2013-12-05 18:22:00,34.0,25.0,-100.00,West,280,10.0,12.0,70,0.00,,,-99.99,,2013-12-05 23:22:00,
2013-12-05 18:53:00,34.0,25.0,-100.00,West,260,9.0,12.0,69,0.00,,,-99.99,,2013-12-05 23:53:00,
2013-12-05 19:22:00,33.0,24.0,-100.00,WNW,285,10.0,14.0,67,0.00,,,-99.99,,2013-12-06 00:22:00,
2013-12-05 19:52:00,33.0,24.0,-100.00,WNW,295,11.0,14.0,69,0.00,,,-99.99,,2013-12-06 00:52:00,
2013-12-05 20:21:00,33.0,24.0,-100.00,WNW,290,14.0,18.0,70,0.00,,,-99.99,,2013-12-06 01:21:00,
2013-12-05 20:52:00,32.0,24.0,-100.00,WNW,295,11.0,17.0,71,0.00,,,-99.99,,2013-12-06 01:52:00,
2013-12-05 21:22:00,32.0,24.0,-100.00,WNW,285,11.0,16.0,72,0.00,,,-99.99,,2013-12-06 02:22:00,
2013-12-05 21:52:00,31.0,23.0,-100.00,WNW,300,15.0,21.0,71,0.00,,,-99.99,,2013-12-06 02:52:00,
2013-12-05 22:22:00,31.0,22.0,-100.00,WNW,300,9.0,15.0,68,0.00,,,-99.99,,2013-12-06 03:22:00,
2013-12-05 22:53:00,31.0,22.0,-100.00,WNW,295,11.0,13.0,70,0.00,,,-99.99,,2013-12-06 03:53:00,
2013-12-05 23:23:00,31.0,23.0,-100.00,NW,305,9.0,13.0,71,0.00,,,-99.99,,2013-12-06 04:23:00,
2013-12-05 23:53:00,31.0,23.0,-100.00,WNW,290,7.0,11.0,73,0.00,,,-99.99,,2013-12-06 04:53:00,